Weather History for KPQN - September, 2013

Change the Weather History Date:

Wednesday, September 4, 2013

  Actual Average Record
Temperature  
Mean Temperature 74 °F -  
Max Temperature 86 °F 76 °F 91 °F (2012)
Min Temperature 62 °F 54 °F 41 °F (2003)
Cooling Degree Days 9    
Growing Degree Days 24 (Base 50)    
Moisture  
Dew Point 63 °F    
Average Humidity 73    
Maximum Humidity 94    
Minimum Humidity 45    
Precipitation  
Precipitation 0.00 in - - ()
Sea Level Pressure  
Sea Level Pressure 30.11 in    
Wind  
Wind Speed 3 mph (South)    
Max Wind Speed 7 mph    
Max Gust Speed -    
Visibility 9 miles    
Events      
Averages and records for this station are not official NWS values.
T = Trace of Precipitation, MM = Missing Value Source: NWS Daily Summary

Daily Weather History Graph

Daily Weather History Graph

Search for Another Location

Airport or City:

Trip Planner

Search our weather history database for the weather conditions in past years. The results will help you decide how hot, cold, wet, or windy it might be!

Date:

Astronomy

Sep. 04, 2013 Rise Set
Actual Time 6:52 AM CDT 7:55 PM CDT
Civil Twilight 6:22 AM CDT 8:24 PM CDT
Nautical Twilight 5:47 AM CDT 8:59 PM CDT
Astronomical Twilight 5:10 AM CDT 9:36 PM CDT
Moon 6:05 AM CDT (9/4) 7:14 PM CDT (9/4)
Length of Visible Light 14h 01m
Length of Day
13h 03m
Waning Crescent, 1% of the Moon is Illuminated
Sep 4
Waning Crescent
Sep 5
New
Sep 12
First Quarter
Sep 19
Full
Sep 26
Last Quarter

Hourly Weather History & Observations

Time (CDT) Temp. Heat Index Dew Point Humidity Pressure Visibility Wind Dir Wind Speed Gust Speed Precip Events Conditions
12:13 AM 66.2 °F - 62.6 °F 88% 30.05 in 10.0 mi SE 3.5 mph - N/A   Clear
12:33 AM 66.2 °F - 64.4 °F 94% 30.06 in 10.0 mi East 4.6 mph - N/A   Clear
12:53 AM 64.4 °F - 62.6 °F 94% 30.06 in 7.0 mi SE 3.5 mph - N/A   Clear
1:13 AM 64.4 °F - 62.6 °F 94% 30.06 in 7.0 mi SE 4.6 mph - N/A   Clear
1:33 AM 64.4 °F - 62.6 °F 94% 30.06 in 7.0 mi SE 4.6 mph - N/A   Clear
1:53 AM 64.4 °F - 62.6 °F 94% 30.06 in 7.0 mi SE 3.5 mph - N/A   Clear
2:13 AM 64.4 °F - 62.6 °F 94% 30.06 in 10.0 mi Calm Calm - N/A   Clear
2:33 AM 64.4 °F - 62.6 °F 94% 30.06 in 10.0 mi Calm Calm - N/A   Clear
2:53 AM 64.4 °F - 62.6 °F 94% 30.06 in 10.0 mi Calm Calm - N/A   Clear
3:13 AM 64.4 °F - 62.6 °F 94% 30.06 in 10.0 mi Calm Calm - N/A   Clear
3:33 AM 64.4 °F - 62.6 °F 94% 30.06 in 10.0 mi Calm Calm - N/A   Clear
3:53 AM 64.4 °F - 60.8 °F 88% 30.07 in 10.0 mi Calm Calm - N/A   Clear
4:13 AM 62.6 °F - 60.8 °F 94% 30.07 in 7.0 mi SE 3.5 mph - N/A   Clear
4:33 AM 62.6 °F - 60.8 °F 94% 30.07 in 7.0 mi SE 3.5 mph - N/A   Clear
4:53 AM 64.4 °F - 60.8 °F 88% 30.08 in 7.0 mi East 3.5 mph - N/A   Clear
5:13 AM 62.6 °F - 60.8 °F 94% 30.08 in 5.0 mi SE 3.5 mph - N/A   Clear
5:33 AM 62.6 °F - 60.8 °F 94% 30.09 in 7.0 mi Calm Calm - N/A   Clear
5:53 AM 62.6 °F - 60.8 °F 94% 30.09 in 5.0 mi SE 4.6 mph - N/A   Clear
6:13 AM 62.6 °F - 60.8 °F 94% 30.09 in 7.0 mi SE 3.5 mph - N/A   Clear
6:33 AM 62.6 °F - 60.8 °F 94% 30.10 in 7.0 mi SE 3.5 mph - N/A   Clear
6:53 AM 62.6 °F - 60.8 °F 94% 30.10 in 7.0 mi Calm Calm - N/A   Clear
7:13 AM 62.6 °F - 60.8 °F 94% 30.11 in 4.0 mi SE 4.6 mph - N/A   Clear
7:33 AM 62.6 °F - 60.8 °F 94% 30.11 in 4.0 mi Calm Calm - N/A   Clear
7:53 AM 64.4 °F - 62.6 °F 94% 30.11 in 7.0 mi Calm Calm - N/A   Clear
8:13 AM 66.2 °F - 62.6 °F 88% 30.12 in 7.0 mi Calm Calm - N/A   Clear
8:33 AM 66.2 °F - 64.4 °F 94% 30.12 in 7.0 mi Calm Calm - N/A   Clear
8:53 AM 69.8 °F - 64.4 °F 83% 30.12 in 10.0 mi SSW 3.5 mph - N/A   Clear
9:13 AM 69.8 °F - 64.4 °F 83% 30.12 in 10.0 mi South 3.5 mph - N/A   Clear
9:33 AM 71.6 °F - 64.4 °F 78% 30.13 in 10.0 mi SSW 4.6 mph - N/A   Clear
9:53 AM 73.4 °F - 64.4 °F 73% 30.13 in 10.0 mi SW 3.5 mph - N/A   Clear
10:13 AM 75.2 °F - 64.4 °F 69% 30.13 in 10.0 mi SSW 3.5 mph - N/A   Clear
10:33 AM 75.2 °F - 64.4 °F 69% 30.14 in 10.0 mi South 3.5 mph - N/A   Clear
10:53 AM 78.8 °F - 64.4 °F 61% 30.14 in 10.0 mi SSW 3.5 mph - N/A   Clear
11:13 AM 78.8 °F - 64.4 °F 61% 30.14 in 10.0 mi SSW 3.5 mph - N/A   Clear
11:33 AM 80.6 °F 81.8 °F 62.6 °F 54% 30.14 in 10.0 mi Calm Calm - N/A   Clear
11:53 AM 82.4 °F 83.4 °F 62.6 °F 51% 30.14 in 10.0 mi South 4.6 mph - N/A   Clear
12:13 PM 82.4 °F 82.9 °F 60.8 °F 48% 30.14 in 10.0 mi WSW 4.6 mph - N/A   Clear
12:33 PM 82.4 °F 83.9 °F 64.4 °F 54% 30.14 in 10.0 mi SSW 5.8 mph - N/A   Clear
12:53 PM 82.4 °F 82.9 °F 60.8 °F 48% 30.13 in 10.0 mi Calm Calm - N/A   Clear
1:13 PM 84.2 °F 84.4 °F 60.8 °F 45% 30.13 in 10.0 mi WSW 4.6 mph - N/A   Clear
1:33 PM 84.2 °F 84.4 °F 60.8 °F 45% 30.13 in 10.0 mi WSW 6.9 mph - N/A   Clear
1:53 PM 84.2 °F 84.4 °F 60.8 °F 45% 30.12 in 10.0 mi WSW 5.8 mph - N/A   Clear
2:13 PM 84.2 °F 85.0 °F 62.6 °F 48% 30.12 in 10.0 mi WSW 4.6 mph - N/A   Clear
2:33 PM 84.2 °F 85.0 °F 62.6 °F 48% 30.12 in 10.0 mi SSW 5.8 mph - N/A   Scattered Clouds
2:53 PM 86.0 °F 87.3 °F 64.4 °F 48% 30.11 in 10.0 mi SSW 5.8 mph - N/A   Clear
3:13 PM 86.0 °F 87.3 °F 64.4 °F 48% 30.11 in 10.0 mi South 4.6 mph - N/A   Clear
3:33 PM 86.0 °F 86.6 °F 62.6 °F 45% 30.12 in 10.0 mi SSW 3.5 mph - N/A   Clear
3:53 PM 86.0 °F 86.6 °F 62.6 °F 45% 30.11 in 10.0 mi SW 4.6 mph - N/A   Clear
4:13 PM 86.0 °F 86.6 °F 62.6 °F 45% 30.11 in 10.0 mi SSW 6.9 mph - N/A   Clear
4:33 PM 84.2 °F 85.6 °F 64.4 °F 51% 30.11 in 10.0 mi South 5.8 mph - N/A   Clear
4:53 PM 84.2 °F 85.6 °F 64.4 °F 51% 30.11 in 10.0 mi South 5.8 mph - N/A   Clear
5:13 PM 84.2 °F 85.6 °F 64.4 °F 51% 30.11 in 10.0 mi South 4.6 mph - N/A   Clear
5:33 PM 84.2 °F 85.6 °F 64.4 °F 51% 30.11 in 10.0 mi South 4.6 mph - N/A   Clear
5:53 PM 84.2 °F 85.6 °F 64.4 °F 51% 30.10 in 10.0 mi South 5.8 mph - N/A   Clear
6:13 PM 84.2 °F 85.6 °F 64.4 °F 51% 30.11 in 10.0 mi SSE 4.6 mph - N/A   Clear
6:33 PM 82.4 °F 84.6 °F 66.2 °F 58% 30.11 in 10.0 mi SSE 4.6 mph - N/A   Clear
6:53 PM 80.6 °F 82.3 °F 64.4 °F 58% 30.11 in 10.0 mi South 4.6 mph - N/A   Clear
7:13 PM 80.6 °F 82.7 °F 66.2 °F 61% 30.11 in 10.0 mi South 3.5 mph - N/A   Clear
7:33 PM 78.8 °F - 64.4 °F 61% 30.11 in 10.0 mi SSE 4.6 mph - N/A   Clear
7:53 PM 78.8 °F - 66.2 °F 65% 30.11 in 10.0 mi Calm Calm - N/A   Clear
8:13 PM 77.0 °F - 66.2 °F 69% 30.12 in 10.0 mi SE 3.5 mph - N/A   Clear
8:33 PM 75.2 °F - 66.2 °F 73% 30.12 in 10.0 mi SSE 4.6 mph - N/A   Clear
8:53 PM 75.2 °F - 66.2 °F 73% 30.13 in 10.0 mi SE 4.6 mph - N/A   Clear
9:13 PM 75.2 °F - 66.2 °F 73% 30.13 in 10.0 mi SE 4.6 mph - N/A   Clear
9:33 PM 73.4 °F - 66.2 °F 78% 30.14 in 10.0 mi Calm Calm - N/A   Clear
9:53 PM 73.4 °F - 66.2 °F 78% 30.14 in 10.0 mi South 5.8 mph - N/A   Clear
10:13 PM 71.6 °F - 66.2 °F 83% 30.14 in 10.0 mi South 6.9 mph - N/A   Clear
10:33 PM 71.6 °F - 66.2 °F 83% 30.14 in 10.0 mi South 4.6 mph - N/A   Clear
10:53 PM 73.4 °F - 64.4 °F 73% 30.15 in 10.0 mi Calm Calm - N/A   Clear
11:13 PM 71.6 °F - 66.2 °F 83% 30.15 in 10.0 mi SSE 3.5 mph - N/A   Clear
11:33 PM 71.6 °F - 64.4 °F 78% 30.15 in 10.0 mi ESE 3.5 mph - N/A   Clear
11:54 PM 71.6 °F - 64.4 °F 78% 30.15 in 10.0 mi SE 4.6 mph - N/A   Clear